{"data":{"norad_id":65951,"epoch":"2026-09-20T13:11:58.279776Z","epoch_age_seconds":139237,"freshness":"FRESH","line1":"1 65951U 25228E   26263.54998009  .00000505  00000+0  95311-4 0  9990","line2":"2 65951  51.8960 221.3788 0000898  71.5360 288.5700 14.79928482 52051","mean_motion":14.79928482,"eccentricity":8.98e-5,"inclination_deg":51.896,"raan_deg":221.3788,"arg_perigee_deg":71.536,"mean_anomaly_deg":288.57,"bstar":9.5311e-5,"rev_number":5205,"period_min":97.301999219176,"perigee_km":628.92060113487,"apogee_km":630.17918170056,"semimajor_km":7007.6868914177,"source":"CELESTRAK","updated_at":"2026-09-21T09:00:15.654864Z"}}